When you browse on this site, cookies collect data to enhance your experience and personalize the content and advertising you see.
Visit our Privacy Policy to learn more. By continuing to use the site, you agree to this use of cookies and data.
  • In Latvia
  • List of Countries
  • For 7 days
  • Water Temperature
  • Weather Map
  • Weather Widgets
  • user-avatar
    Login

    Hourly Weather Ordino

    Today, 7 April, Tuesday

    Time Temperature Precipitation Wind Pressure Humidity
    00:00 +5°C° 0 mm 1 mps 636 mmHg 91%
    01:00 +5°C° 0 mm 1 mps 636 mmHg 91%
    02:00 +5°C° 0 mm 1 mps 636 mmHg 91%
    03:00 +5°C° 0 mm 1 mps 636 mmHg 91%
    04:00 +5°C° 0 mm 1 mps 636 mmHg 91%
    05:00 +5°C° 0 mm 1 mps 636 mmHg 91%
    06:00 +6°C° 0 mm 1 mps 636 mmHg 92%
    07:00 +7°C° 0 mm 1 mps 637 mmHg 86%
    08:00 +9°C° 0 mm 1 mps 638 mmHg 81%
    09:00 +9°C° 0 mm 2 mps 638 mmHg 75%
    10:00 +9°C° 0.1 mm 2 mps 639 mmHg 75%
    11:00 +10°C° 0.1 mm 2 mps 639 mmHg 74%
    12:00 +10°C° 0.1 mm 2 mps 639 mmHg 74%
    13:00 +10°C° 0.2 mm 1 mps 638 mmHg 77%
    14:00 +10°C° 0.2 mm 1 mps 638 mmHg 80%
    15:00 +9°C° 0.2 mm 1 mps 638 mmHg 83%
    16:00 +9°C° 0.2 mm 1 mps 637 mmHg 86%
    17:00 +8°C° 0.2 mm 1 mps 637 mmHg 90%
    18:00 +7°C° 0.2 mm 1 mps 637 mmHg 93%
    19:00 +7°C° 0 mm 1 mps 637 mmHg 94%
    20:00 +7°C° 0 mm 1 mps 637 mmHg 94%
    21:00 +6°C° 0 mm 1 mps 637 mmHg 95%
    22:00 +6°C° 0 mm 1 mps 637 mmHg 95%
    23:00 +6°C° 0 mm 1 mps 637 mmHg 95%

    Tomorrow, 8 April, Wednesday

    Time Temperature Precipitation Wind Pressure Humidity
    00:00 +6°C° 0 mm 1 mps 637 mmHg 94%
    01:00 +6°C° 0 mm 1 mps 637 mmHg 94%
    02:00 +5°C° 0 mm 1 mps 636 mmHg 94%
    03:00 +5°C° 0 mm 1 mps 636 mmHg 94%
    04:00 +5°C° 0 mm 1 mps 636 mmHg 93%
    05:00 +5°C° 0 mm 1 mps 636 mmHg 92%
    06:00 +5°C° 0 mm 1 mps 636 mmHg 91%
    07:00 +7°C° 0 mm 1 mps 637 mmHg 83%
    08:00 +9°C° 0 mm 1 mps 638 mmHg 76%
    09:00 +12°C° 0 mm 1 mps 639 mmHg 68%
    10:00 +12°C° 0.3 mm 1 mps 639 mmHg 69%
    11:00 +12°C° 0.3 mm 1 mps 638 mmHg 69%
    12:00 +12°C° 0.3 mm 2 mps 638 mmHg 70%
    13:00 +12°C° 0.7 mm 1 mps 638 mmHg 72%
    14:00 +11°C° 0.7 mm 1 mps 637 mmHg 75%
    15:00 +11°C° 0.7 mm 1 mps 637 mmHg 77%
    16:00 +10°C° 0.3 mm 1 mps 637 mmHg 81%
    17:00 +8°C° 0.3 mm 0 mps 636 mmHg 84%
    18:00 +8°C° 0.3 mm 0 mps 636 mmHg 87%
    19:00 +7°C° 0 mm 0 mps 636 mmHg 89%
    20:00 +7°C° 0 mm 1 mps 636 mmHg 90%
    21:00 +6°C° 0 mm 1 mps 636 mmHg 92%
    22:00 +6°C° 0 mm 1 mps 636 mmHg 91%
    23:00 +5°C° 0 mm 1 mps 636 mmHg 90%

    Day after tomorrow, 9 April, Thursday

    Time Temperature Precipitation Wind Pressure Humidity
    00:00 +5°C° 0 mm 1 mps 635 mmHg 89%
    01:00 +5°C° 0 mm 1 mps 635 mmHg 88%
    02:00 +5°C° 0 mm 1 mps 635 mmHg 86%
    03:00 +5°C° 0 mm 1 mps 635 mmHg 84%
    04:00 +5°C° 0 mm 1 mps 635 mmHg 83%
    05:00 +5°C° 0 mm 1 mps 635 mmHg 82%
    06:00 +5°C° 0 mm 1 mps 635 mmHg 81%
    07:00 +8°C° 0 mm 1 mps 636 mmHg 74%
    08:00 +10°C° 0 mm 1 mps 637 mmHg 67%
    09:00 +12°C° 0 mm 0 mps 638 mmHg 60%
    10:00 +14°C° 0 mm 1 mps 638 mmHg 57%
    11:00 +14°C° 0 mm 1 mps 638 mmHg 54%
    12:00 +15°C° 0 mm 2 mps 638 mmHg 51%
    13:00 +14°C° 0.3 mm 2 mps 638 mmHg 57%
    14:00 +14°C° 0.3 mm 1 mps 637 mmHg 63%
    15:00 +13°C° 0.3 mm 1 mps 636 mmHg 69%
    16:00 +12°C° 0.2 mm 1 mps 636 mmHg 74%
    17:00 +11°C° 0.2 mm 1 mps 636 mmHg 79%
    18:00 +10°C° 0.2 mm 1 mps 635 mmHg 84%
    19:00 +9°C° 0 mm 1 mps 635 mmHg 87%
    20:00 +8°C° 0 mm 1 mps 635 mmHg 89%
    21:00 +7°C° 0 mm 1 mps 635 mmHg 92%
    22:00 +7°C° 0 mm 1 mps 635 mmHg 92%
    23:00 +6°C° 0 mm 1 mps 635 mmHg 92%

    10 April, Friday

    Time Temperature Precipitation Wind Pressure Humidity
    00:00 +6°C° 0 mm 1 mps 635 mmHg 91%
    01:00 +6°C° 0 mm 1 mps 634 mmHg 90%
    02:00 +6°C° 0 mm 1 mps 634 mmHg 89%
    03:00 +6°C° 0 mm 1 mps 634 mmHg 89%
    04:00 +6°C° 0 mm 1 mps 634 mmHg 88%
    05:00 +6°C° 0 mm 1 mps 634 mmHg 88%
    06:00 +6°C° 0 mm 1 mps 635 mmHg 88%
    07:00 +8°C° 0 mm 1 mps 636 mmHg 78%
    08:00 +11°C° 0 mm 1 mps 637 mmHg 69%
    09:00 +13°C° 0 mm 1 mps 638 mmHg 60%
    10:00 +14°C° 0.1 mm 1 mps 638 mmHg 57%
    11:00 +15°C° 0.1 mm 2 mps 638 mmHg 54%
    12:00 +15°C° 0.1 mm 2 mps 638 mmHg 52%
    13:00 +15°C° 0.3 mm 2 mps 637 mmHg 56%
    14:00 +14°C° 0.3 mm 2 mps 637 mmHg 60%
    15:00 +14°C° 0.3 mm 2 mps 636 mmHg 65%
    16:00 +13°C° 0.5 mm 1 mps 636 mmHg 71%
    17:00 +12°C° 0.5 mm 1 mps 636 mmHg 78%
    18:00 +11°C° 0.5 mm 1 mps 635 mmHg 85%
    19:00 +10°C° 0.2 mm 1 mps 635 mmHg 88%
    20:00 +9°C° 0.2 mm 1 mps 635 mmHg 91%
    21:00 +8°C° 0.2 mm 1 mps 636 mmHg 94%
    22:00 +7°C° 0.1 mm 0 mps 636 mmHg 94%
    23:00 +7°C° 0.1 mm 0 mps 636 mmHg 95%

    11 April, Saturday

    Time Temperature Precipitation Wind Pressure Humidity
    00:00 +6°C° 0.1 mm 0 mps 636 mmHg 95%
    01:00 +6°C° 0 mm 0 mps 635 mmHg 94%
    02:00 +6°C° 0 mm 0 mps 635 mmHg 94%
    03:00 +5°C° 0 mm 0 mps 635 mmHg 93%
    04:00 +5°C° 0 mm 0 mps 635 mmHg 93%
    05:00 +5°C° 0 mm 0 mps 635 mmHg 92%
    06:00 +5°C° 0 mm 0 mps 635 mmHg 91%
    07:00 +8°C° 0 mm 1 mps 636 mmHg 86%
    08:00 +10°C° 0 mm 1 mps 637 mmHg 80%
    09:00 +12°C° 0 mm 1 mps 637 mmHg 74%
    10:00 +12°C° 0.2 mm 1 mps 637 mmHg 74%
    11:00 +12°C° 0.2 mm 2 mps 637 mmHg 74%
    12:00 +12°C° 0.2 mm 2 mps 637 mmHg 75%
    13:00 +12°C° 0.3 mm 2 mps 637 mmHg 76%
    14:00 +10°C° 0.3 mm 2 mps 636 mmHg 78%
    15:00 +11°C° 0.3 mm 1 mps 636 mmHg 79%
    16:00 +11°C° 0.3 mm 1 mps 635 mmHg 83%
    17:00 +10°C° 0.3 mm 1 mps 635 mmHg 87%
    18:00 +9°C° 0.3 mm 1 mps 635 mmHg 91%
    19:00 +9°C° 0.1 mm 1 mps 635 mmHg 93%
    20:00 +7°C° 0.1 mm 0 mps 635 mmHg 95%
    21:00 +7°C° 0.1 mm 0 mps 635 mmHg 96%
    22:00 +7°C° 0.1 mm 0 mps 635 mmHg 96%
    23:00 +7°C° 0.1 mm 0 mps 635 mmHg 96%

    12 April, Sunday

    Time Temperature Precipitation Wind Pressure Humidity
    00:00 +6°C° 0.1 mm 0 mps 635 mmHg 96%
    01:00 +6°C° 0.1 mm 0 mps 634 mmHg 96%
    02:00 +6°C° 0.1 mm 0 mps 634 mmHg 96%
    03:00 +6°C° 0.1 mm 0 mps 633 mmHg 96%
    04:00 +6°C° 0 mm 0 mps 633 mmHg 95%
    05:00 +6°C° 0 mm 0 mps 633 mmHg 95%
    06:00 +6°C° 0 mm 0 mps 633 mmHg 94%
    07:00 +8°C° 0 mm 1 mps 633 mmHg 90%
    08:00 +9°C° 0 mm 1 mps 633 mmHg 86%
    09:00 +10°C° 0 mm 1 mps 634 mmHg 81%
    10:00 +10°C° 0.1 mm 1 mps 634 mmHg 78%
    11:00 +11°C° 0.1 mm 1 mps 633 mmHg 74%
    12:00 +12°C° 0.1 mm 2 mps 633 mmHg 70%
    13:00 +10°C° 0.2 mm 2 mps 633 mmHg 70%
    14:00 +10°C° 0.2 mm 2 mps 632 mmHg 70%
    15:00 +10°C° 0.2 mm 2 mps 631 mmHg 70%
    16:00 +10°C° 0.1 mm 1 mps 631 mmHg 74%
    17:00 +9°C° 0.1 mm 1 mps 630 mmHg 79%
    18:00 +8°C° 0.1 mm 1 mps 630 mmHg 83%
    19:00 +8°C° 0 mm 1 mps 629 mmHg 86%
    20:00 +7°C° 0 mm 1 mps 629 mmHg 88%
    21:00 +6°C° 0 mm 1 mps 628 mmHg 90%
    22:00 +5°C° 0 mm 1 mps 628 mmHg 91%
    23:00 +5°C° 0 mm 1 mps 627 mmHg 91%
    Show more